Terug naar catalogus

STARLINK-31668

ActiefCommunicatieVLEO
NORAD 59580·PAYLOAD·🇺🇸 United States

Gelanceerd Apr 23, 2024 vanaf Cape Canaveral Space Force Station

Loading…

Volgende Passages (komende 24 uur)

TLE

VersSource: CelesTrak SupGP

Epoch: Sep 15, 2026, 01:54 UTC

1 59580C 24076S   26258.07965278 -.00015525  00000+0 -56236-3 0  2585
2 59580  43.0019  18.9613 0001480 272.1439  55.6798 15.27582976    18

Volg STARLINK-31668 in realtime met AllMySat

Download on the App Store